DW2363 Weather Reports


Display with metric or nautical units.
time (UTC)temp
F
wind
direction
speed
MPH
gust
MPH
rain 1hr
in
rain 24hr
in
rain mn
in
humidity
%
barometer
mb
20201021130104 68 5 4.0 5.0 0.00 0.00 0.00 65 1010.2
20201021125559 67 5 4.0 5.0 0.00 0.00 0.00 63 1010.1
20201021125059 67 11 4.0 5.0 0.00 0.00 0.00 68 1010.1
20201021124601 67 11 4.0 5.0 0.00 0.00 0.00 66 1010.1
20201021124115 67 11 4.0 5.0 0.00 0.00 0.00 67 1010.0
20201021123558 67 19 5.0 8.0 0.00 0.00 0.00 67 1010.0
20201021123058 67 9 5.0 8.0 0.00 0.00 0.00 68 1010.1
20201021122558 67 13 6.0 8.0 0.00 0.00 0.00 66 1010.1
20201021122058 67 10 5.0 8.0 0.00 0.00 0.00 65 1010.0
20201021121556 67 15 4.0 7.0 0.00 0.00 0.00 63 1010.1
20201021121056 67 25 4.0 7.0 0.00 0.00 0.00 65 1010.0
20201021120558 68 18 4.0 7.0 0.00 0.00 0.00 64 1010.0
20201021120055 68 71 4.0 5.0 0.00 0.00 0.00 57 1010.0
20201021115556 68 35 4.0 5.0 0.00 0.00 0.00 64 1009.9
20201021115108 69 52 4.0 5.0 0.00 0.00 0.00 62 1009.9
20201021114555 69 57 4.0 5.0 0.00 0.00 0.00 51 1009.9
20201021114054 69 76 5.0 7.0 0.00 0.00 0.00 50 1009.9
20201021113559 69 64 5.0 7.0 0.00 0.00 0.00 53 1009.9
20201021113053 68 93 5.0 7.0 0.00 0.00 0.00 54 1010.0
20201021112552 67 92 4.0 7.0 0.00 0.00 0.00 50 1010.0
20201021112052 67 63 4.0 6.0 0.00 0.00 0.00 64 1010.0
20201021111554 66 33 5.0 6.0 0.00 0.00 0.00 66 1009.9
20201021111053 66 26 5.0 6.0 0.00 0.00 0.00 65 1009.9
20201021110551 67 26 5.0 6.0 0.00 0.00 0.00 67 1009.9
20201021110052 65 36 6.0 8.0 0.00 0.00 0.00 70 1009.9
20201021105553 65 24 7.0 8.0 0.00 0.00 0.00 76 1009.9
20201021105052 65 26 7.0 8.0 0.00 0.00 0.00 77 1009.9
20201021104556 66 26 7.0 9.0 0.00 0.00 0.00 78 1010.0
20201021104052 67 27 8.0 9.0 0.00 0.00 0.00 66 1010.0
20201021103551 67 30 8.0 10.0 0.00 0.00 0.00 61 1010.0
20201021103054 68 39 7.0 10.0 0.00 0.00 0.00 62 1010.1
20201021102554 68 57 7.0 9.0 0.00 0.00 0.00 68 1010.2
20201021102051 67 49 8.0 9.0 0.00 0.00 0.00 64 1010.3
20201021101551 67 38 8.0 9.0 0.00 0.00 0.00 66 1010.5
20201021101107 67 42 9.0 10.0 0.00 0.00 0.00 60 1010.5
20201021100556 66 39 9.0 10.0 0.00 0.00 0.00 61 1010.5
20201021100052 67 32 8.0 10.0 0.00 0.00 0.00 62 1010.5
20201021095553 66 48 8.0 9.0 0.00 0.00 0.00 62 1010.6
20201021095050 66 32 8.0 9.0 0.00 0.00 0.00 65 1010.6
20201021094554 65 37 8.0 9.0 0.00 0.00 0.00 68 1010.6
20201021094052 64 23 8.0 9.0 0.00 0.00 0.00 79 1010.6
20201021093549 64 25 9.0 10.0 0.00 0.00 0.00 79 1010.6
20201021093047 64 25 8.0 10.0 0.00 0.00 0.00 80 1010.6
20201021092547 65 36 8.0 9.0 0.00 0.00 0.00 82 1010.6
20201021092048 65 43 7.0 10.0 0.00 0.00 0.00 79 1010.6
20201021091549 65 81 7.0 10.0 0.00 0.00 0.00 66 1010.7
20201021091053 64 25 5.0 8.0 0.00 0.00 0.00 78 1010.7
20201021090548 64 28 5.0 8.0 0.00 0.00 0.00 79 1010.7
20201021090045 65 56 6.0 9.0 0.00 0.00 0.00 75 1010.7
20201021085545 66 69 6.0 9.0 0.00 0.00 0.00 64 1010.7
20201021085047 66 66 5.0 8.0 0.00 0.00 0.00 66 1010.6
20201021084546 66 53 4.0 6.0 0.00 0.00 0.00 69 1010.7
20201021084045 66 49 4.0 6.0 0.00 0.00 0.00 69 1010.7
20201021083545 67 80 4.0 7.0 0.00 0.00 0.00 63 1010.7
20201021083048 67 103 5.0 7.0 0.00 0.00 0.00 65 1010.7
20201021082546 66 92 4.0 7.0 0.00 0.00 0.00 63 1010.8
20201021082050 66 84 5.0 7.0 0.00 0.00 0.00 64 1010.8
20201021081552 66 107 4.0 7.0 0.00 0.00 0.00 65 1010.8
20201021081045 66 93 4.0 7.0 0.00 0.00 0.00 68 1010.8
20201021080552 67 63 4.0 7.0 0.00 0.00 0.00 65 1010.8
20201021080046 67 94 6.0 9.0 0.00 0.00 0.00 61 1010.9
20201021075605 67 121 7.0 9.0 0.00 0.00 0.00 58 1010.9
20201021075043 67 107 7.0 9.0 0.00 0.00 0.00 62 1011.0
20201021074543 67 83 7.0 9.0 0.00 0.00 0.00 61 1011.0
20201021074050 67 105 7.0 9.0 0.00 0.00 0.00 59 1011.0
20201021073549 67 105 5.0 8.0 0.00 0.00 0.00 60 1011.0
20201021073043 67 59 4.0 7.0 0.00 0.00 0.00 61 1011.0
20201021072544 67 86 5.0 8.0 0.00 0.00 0.00 60 1011.0
20201021072045 67 100 6.0 8.0 0.00 0.00 0.00 62 1011.0
20201021071543 67 107 7.0 9.0 0.00 0.00 0.00 62 1011.1
20201021071045 67 113 8.0 9.0 0.00 0.00 0.00 63 1011.1
20201021070545 67 115 8.0 9.0 0.00 0.00 0.00 64 1011.1
20201021070043 67 115 8.0 10.0 0.00 0.00 0.00 64 1011.1
20201021065541 67 113 9.0 10.0 0.00 0.00 0.00 65 1011.1
20201021065040 67 115 9.0 10.0 0.00 0.00 0.00 66 1011.1
20201021064536 67 120 9.0 10.0 0.00 0.00 0.00 68 1011.2
20201021064038 67 123 8.0 10.0 0.00 0.00 0.00 67 1011.2
20201021063537 67 127 8.0 9.0 0.00 0.00 0.00 67 1011.2
20201021063037 67 126 8.0 8.0 0.00 0.00 0.00 67 1011.2
20201021062537 67 123 8.0 9.0 0.00 0.00 0.00 67 1011.2
20201021062036 67 121 8.0 9.0 0.00 0.00 0.00 67 1011.2
20201021061536 67 122 8.0 10.0 0.00 0.00 0.00 68 1011.3
20201021061058 67 118 7.0 10.0 0.00 0.00 0.00 67 1011.3
20201021060539 67 126 7.0 9.0 0.00 0.00 0.00 68 1011.3
20201021060041 67 129 6.0 8.0 0.00 0.00 0.00 67 1011.4
20201021055538 67 129 6.0 7.0 0.00 0.00 0.00 67 1011.4
20201021055038 67 131 5.0 7.0 0.00 0.00 0.00 65 1011.3
20201021054537 67 136 5.0 7.0 0.00 0.00 0.00 66 1011.3
20201021054045 67 129 5.0 7.0 0.00 0.00 0.00 65 1011.3
20201021053536 67 124 5.0 8.0 0.00 0.00 0.00 66 1011.4
20201021053043 67 123 7.0 9.0 0.00 0.00 0.00 67 1011.4
20201021052537 68 128 7.0 9.0 0.00 0.00 0.00 67 1011.4
20201021052037 68 132 7.0 8.0 0.00 0.00 0.00 68 1011.4
20201021051538 68 123 6.0 8.0 0.00 0.00 0.00 67 1011.4
20201021051035 68 121 5.0 7.0 0.00 0.00 0.00 60 1011.3
20201021050540 69 114 5.0 7.0 0.00 0.00 0.00 58 1011.3
20201021050037 69 112 5.0 7.0 0.00 0.00 0.00 52 1011.3
20201021045538 69 99 6.0 8.0 0.00 0.00 0.00 51 1011.4
20201021045039 69 93 6.0 8.0 0.00 0.00 0.00 68 1011.4
20201021044538 69 93 6.0 8.0 0.00 0.00 0.00 65 1011.3
20201021044040 69 87 5.0 8.0 0.00 0.00 0.00 69 1011.3
20201021043543 69 76 5.0 8.0 0.00 0.00 0.00 69 1011.3
20201021043036 69 59 5.0 8.0 0.00 0.00 0.00 70 1011.3
20201021042536 69 59 6.0 7.0 0.00 0.00 0.00 70 1011.3
20201021042036 69 52 6.0 7.0 0.00 0.00 0.00 70 1011.3
20201021041535 69 52 6.0 8.0 0.00 0.00 0.00 70 1011.3
20201021041037 69 38 6.0 9.0 0.00 0.00 0.00 69 1011.2
20201021040534 69 34 6.0 9.0 0.00 0.00 0.00 68 1011.2
20201021040041 69 15 7.0 9.0 0.00 0.00 0.00 69 1011.2
20201021035535 69 13 8.0 9.0 0.00 0.00 0.00 69 1011.1
20201021035032 69 5 7.0 9.0 0.00 0.00 0.00 69 1011.1
20201021034533 69 0 7.0 9.0 0.00 0.00 0.00 68 1011.1
20201021034031 69 355 7.0 9.0 0.00 0.00 0.00 64 1011.0
20201021033530 69 0 7.0 9.0 0.00 0.00 0.00 68 1011.0
20201021033032 68 0 7.0 9.0 0.00 0.00 0.00 69 1011.0
20201021032532 69 9 6.0 8.0 0.00 0.00 0.00 70 1011.0
20201021032031 69 355 6.0 8.0 0.00 0.00 0.00 69 1011.0
20201021031537 69 355 7.0 8.0 0.00 0.00 0.00 69 1011.0
20201021031038 69 355 7.0 8.0 0.00 0.00 0.00 68 1011.1
20201021030537 69 355 8.0 10.0 0.00 0.00 0.00 68 1011.0
20201021030030 69 355 9.0 10.0 0.00 0.00 0.00 67 1011.0
20201021025533 70 0 9.0 9.0 0.00 0.00 0.00 67 1010.9
20201021025029 70 0 8.0 9.0 0.00 0.00 0.00 65 1010.9
20201021024529 71 5 7.0 9.0 0.00 0.00 0.00 64 1010.9
20201021024029 71 0 7.0 8.0 0.00 0.00 0.00 63 1010.9
20201021023531 71 355 8.0 9.0 0.00 0.00 0.00 61 1010.9
20201021023036 71 351 7.0 9.0 0.00 0.00 0.00 60 1010.8
20201021022529 72 342 6.0 8.0 0.00 0.00 0.00 60 1010.9
20201021022028 72 338 5.0 8.0 0.00 0.00 0.00 60 1010.8
20201021021529 72 327 5.0 6.0 0.00 0.00 0.00 60 1010.8
20201021021034 72 325 5.0 8.0 0.00 0.00 0.00 60 1010.8
20201021020528 72 317 5.0 8.0 0.00 0.00 0.00 60 1010.7
20201021020031 72 327 5.0 7.0 0.00 0.00 0.00 60 1010.8
20201021015526 72 310 4.0 6.0 0.00 0.00 0.00 60 1010.8
20201021015027 72 325 5.0 7.0 0.00 0.00 0.00 60 1010.7
20201021014526 72 313 4.0 7.0 0.00 0.00 0.00 58 1010.7
20201021014037 72 306 3.0 5.0 0.00 0.00 0.00 57 1010.7
20201021013526 72 296 2.0 4.0 0.00 0.00 0.00 54 1010.6
20201021013029 72 285 2.0 3.0 0.00 0.00 0.00 55 1010.6
20201021012524 72 275 2.0 3.0 0.00 0.00 0.00 57 1010.6
20201021012026 72 306 3.0 4.0 0.00 0.00 0.00 61 1010.6
20201021011524 72 266 3.0 4.0 0.00 0.00 0.00 62 1010.6
20201021011022 72 274 2.0 4.0 0.00 0.00 0.00 63 1010.6
20201021010526 73 265 2.0 4.0 0.00 0.00 0.00 63 1010.6
20201021010029 73 308 1.0 4.0 0.00 0.00 0.00 62 1010.6
20201021005520 73 286 1.0 3.0 0.00 0.00 0.00 63 1010.6
20201021005025 73 306 2.0 3.0 0.00 0.00 0.00 62 1010.6
20201021004527 74 291 2.0 3.0 0.00 0.00 0.00 62 1010.5
20201021004025 74 321 2.0 3.0 0.00 0.00 0.00 61 1010.5
20201021003520 74 296 2.0 3.0 0.00 0.00 0.00 61 1010.5
20201021003022 74 338 2.0 3.0 0.00 0.00 0.00 60 1010.6
20201021002521 75 331 2.0 3.0 0.00 0.00 0.00 60 1010.7
20201021002027 75 335 2.0 3.0 0.00 0.00 0.00 59 1010.5
20201021001525 75 327 2.0 4.0 0.00 0.00 0.00 58 1010.5
20201021001022 75 311 2.0 4.0 0.00 0.00 0.00 58 1010.5
20201021000523 75 318 2.0 4.0 0.00 0.00 0.00 59 1010.5
20201021000025 75 329 3.0 4.0 0.00 0.00 0.00 59 1010.5
20201020235519 76 19 2.0 3.0 0.00 0.00 0.00 58 1010.6
20201020235025 77 327 1.0 2.0 0.00 0.00 0.00 57 1010.5
20201020234520 77 340 1.0 3.0 0.00 0.00 0.00 56 1010.5
20201020234019 78 25 2.0 3.0 0.00 0.00 0.00 56 1010.6
20201020233521 78 63 1.0 3.0 0.00 0.00 0.00 54 1010.5
20201020233027 78 55 2.0 3.0 0.00 0.00 0.00 52 1010.6
20201020232520 78 340 2.0 4.0 0.00 0.00 0.00 51 1010.6
20201020232031 78 10 2.0 4.0 0.00 0.00 0.00 51 1010.6
20201020231525 78 336 2.0 4.0 0.00 0.00 0.00 54 1010.6
20201020231020 78 15 2.0 4.0 0.00 0.00 0.00 54 1010.6
20201020230521 79 40 2.0 4.0 0.00 0.00 0.00 53 1010.6
20201020230029 79 88 1.0 3.0 0.00 0.00 0.00 53 1010.6
20201020225518 79 124 2.0 4.0 0.00 0.00 0.00 54 1010.7
20201020225020 79 33 2.0 5.0 0.00 0.00 0.00 51 1010.7
20201020224526 79 319 3.0 5.0 0.00 0.00 0.00 49 1010.7
20201020224020 79 355 3.0 5.0 0.00 0.00 0.00 49 1010.7
20201020223518 79 311 3.0 5.0 0.00 0.00 0.00 51 1010.7
20201020223034 80 10 2.0 5.0 0.00 0.00 0.00 52 1010.7
20201020222521 80 190 1.0 5.0 0.00 0.00 0.00 50 1010.8
20201020222018 80 59 2.0 5.0 0.00 0.00 0.00 49 1010.8
20201020221522 80 320 2.0 5.0 0.00 0.00 0.00 41 1010.8
20201020221012 80 101 2.0 5.0 0.00 0.00 0.00 52 1010.9
20201020220518 80 197 2.0 6.0 0.00 0.00 0.00 46 1010.8
20201020220023 80 107 2.0 6.0 0.00 0.00 0.00 47 1010.9
20201020215519 80 37 3.0 7.0 0.00 0.00 0.00 40 1010.8
20201020215021 80 37 4.0 7.0 0.00 0.00 0.00 44 1010.8
20201020214514 80 35 4.0 7.0 0.00 0.00 0.00 30 1010.8
20201020214016 79 15 4.0 7.0 0.00 0.00 0.00 45 1010.9
20201020213510 80 40 4.0 7.0 0.00 0.00 0.00 39 1011.0
20201020213024 79 30 4.0 7.0 0.00 0.00 0.00 41 1010.9
20201020212510 79 15 4.0 8.0 0.00 0.00 0.00 44 1011.1
20201020212028 79 22 4.0 8.0 0.00 0.00 0.00 38 1011.1
20201020211524 79 5 5.0 9.0 0.00 0.00 0.00 43 1011.1
20201020211012 78 32 4.0 9.0 0.00 0.00 0.00 44 1011.2
20201020210525 78 48 4.0 8.0 0.00 0.00 0.00 42 1011.2
20201020210026 78 302 5.0 8.0 0.00 0.00 0.00 48 1011.2
20201020205512 77 348 5.0 9.0 0.00 0.00 0.00 50 1011.2
20201020205018 77 355 6.0 9.0 0.00 0.00 0.00 53 1011.3
20201020204525 77 19 5.0 8.0 0.00 0.00 0.00 48 1011.3
20201020204012 77 62 5.0 9.0 0.00 0.00 0.00 51 1011.4
20201020203512 77 15 5.0 9.0 0.00 0.00 0.00 52 1011.5
20201020203026 76 9 5.0 9.0 0.00 0.00 0.00 52 1011.5
20201020202515 76 9 5.0 9.0 0.00 0.00 0.00 52 1011.6
20201020202007 76 31 6.0 9.0 0.00 0.00 0.00 55 1011.7
20201020201524 75 67 5.0 9.0 0.00 0.00 0.00 57 1011.9
20201020201007 75 40 5.0 9.0 0.00 0.00 0.00 58 1012.0
20201020200510 75 60 5.0 9.0 0.00 0.00 0.00 56 1012.0
20201020200018 74 40 6.0 10.0 0.00 0.00 0.00 58 1012.1
20201020195512 73 17 6.0 10.0 0.00 0.00 0.00 61 1012.1
20201020195019 73 24 7.0 10.0 0.00 0.00 0.00 62 1012.2
20201020194519 73 5 6.0 10.0 0.00 0.00 0.00 62 1012.2
20201020194009 74 9 5.0 9.0 0.00 0.00 0.00 60 1012.4
20201020193511 74 13 5.0 9.0 0.00 0.00 0.00 60 1012.4
20201020193009 74 49 5.0 8.0 0.00 0.00 0.00 60 1012.4
20201020192507 74 5 4.0 8.0 0.00 0.00 0.00 58 1012.5
20201020192011 74 28 4.0 7.0 0.00 0.00 0.00 53 1012.6
20201020191509 74 9 4.0 7.0 0.00 0.00 0.00 60 1012.6
20201020191012 74 0 4.0 7.0 0.00 0.00 0.00 56 1012.7
20201020190514 74 30 4.0 7.0 0.00 0.00 0.00 59 1012.7
20201020190021 73 5 4.0 6.0 0.00 0.00 0.00 58 1012.8
20201020185506 73 0 4.0 6.0 0.00 0.00 0.00 58 1012.9
20201020185019 72 40 3.0 5.0 0.00 0.00 0.00 64 1013.0
20201020184459 72 44 3.0 5.0 0.00 0.00 0.00 67 1013.0
20201020184004 72 49 4.0 6.0 0.00 0.00 0.00 67 1013.0
20201020183506 72 102 3.0 6.0 0.00 0.00 0.00 66 1013.1
20201020182958 73 26 3.0 8.0 0.00 0.00 0.00 65 1013.1
20201020182500 73 91 3.0 8.0 0.00 0.00 0.00 65 1013.1
20201020182000 74 94 4.0 6.0 0.00 0.00 0.00 63 1013.1
20201020181458 74 66 4.0 6.0 0.00 0.00 0.00 61 1013.0
20201020181000 74 34 4.0 6.0 0.00 0.00 0.00 55 1013.0
20201020180459 74 32 4.0 6.0 0.00 0.00 0.00 55 1013.0
20201020175957 73 36 4.0 7.0 0.00 0.00 0.00 60 1013.1
20201020175457 73 55 4.0 7.0 0.00 0.00 0.00 60 1013.2
20201020174958 73 57 3.0 7.0 0.00 0.00 0.00 59 1013.2
20201020174509 73 119 3.0 6.0 0.00 0.00 0.00 61 1013.4
20201020173959 73 81 3.0 6.0 0.00 0.00 0.00 60 1013.2
20201020173459 73 103 3.0 6.0 0.00 0.00 0.00 61 1013.4
20201020172959 73 119 4.0 6.0 0.00 0.00 0.00 57 1013.2
20201020172458 73 78 4.0 7.0 0.00 0.00 0.00 58 1013.4
20201020171957 73 61 5.0 8.0 0.00 0.00 0.00 56 1013.4
20201020171456 72 46 5.0 8.0 0.00 0.00 0.00 56 1013.4
20201020170957 71 74 6.0 8.0 0.00 0.00 0.00 57 1013.4
20201020170455 71 42 6.0 9.0 0.00 0.00 0.00 61 1013.4
20201020165955 70 53 6.0 9.0 0.00 0.00 0.00 62 1013.4
20201020165456 70 31 7.0 11.0 0.00 0.00 0.00 62 1013.5
20201020164958 69 50 7.0 11.0 0.00 0.00 0.00 65 1013.5
20201020164457 69 63 8.0 12.0 0.00 0.00 0.00 62 1013.5
20201020163958 69 53 8.0 12.0 0.00 0.00 0.00 63 1013.6
20201020163456 69 53 7.0 11.0 0.00 0.00 0.00 62 1013.6
20201020162952 68 58 7.0 11.0 0.00 0.00 0.00 63 1013.7
20201020162453 68 28 7.0 12.0 0.00 0.00 0.00 62 1013.6
20201020161956 68 42 7.0 12.0 0.00 0.00 0.00 61 1013.6
20201020161454 68 64 8.0 14.0 0.00 0.00 0.00 60 1013.6
20201020160954 68 61 9.0 14.0 0.00 0.00 0.00 59 1013.7
20201020160454 68 42 11.0 15.0 0.00 0.00 0.00 62 1013.5
20201020155950 68 54 12.0 15.0 0.00 0.00 0.00 62 1013.4
20201020155450 67 44 12.0 15.0 0.00 0.00 0.00 63 1013.4
20201020154950 67 51 11.0 15.0 0.00 0.00 0.00 63 1013.4
20201020154459 67 48 10.0 15.0 0.00 0.00 0.00 63 1013.2
20201020153951 67 58 10.0 15.0 0.00 0.00 0.00 62 1013.2
20201020153452 67 47 10.0 15.0 0.00 0.00 0.00 62 1013.0
20201020152950 67 66 9.0 14.0 0.00 0.00 0.00 62 1013.1
20201020152449 67 52 8.0 12.0 0.00 0.00 0.00 65 1013.2
20201020151950 66 53 8.0 12.0 0.00 0.00 0.00 64 1013.0
20201020151448 66 55 8.0 12.0 0.00 0.00 0.00 65 1013.0
20201020151001 66 40 9.0 12.0 0.00 0.00 0.00 64 1013.0
20201020150453 66 44 10.0 13.0 0.00 0.00 0.00 64 1012.9
20201020145949 66 66 10.0 13.0 0.00 0.00 0.00 62 1012.9
20201020145451 66 48 9.0 13.0 0.00 0.00 0.00 65 1012.8
20201020144952 66 57 8.0 11.0 0.00 0.00 0.00 61 1012.8
20201020144448 67 50 7.0 10.0 0.00 0.00 0.00 64 1012.8
20201020143947 67 59 6.0 10.0 0.00 0.00 0.00 62 1012.8
20201020143450 67 55 6.0 10.0 0.00 0.00 0.00 60 1012.8
20201020142947 68 63 7.0 10.0 0.00 0.00 0.00 57 1012.7
20201020142446 68 67 8.0 10.0 0.00 0.00 0.00 52 1012.7
20201020141946 68 75 7.0 10.0 0.00 0.00 0.00 52 1012.7
20201020141458 68 77 6.0 9.0 0.00 0.00 0.00 53 1012.7
20201020140946 68 82 6.0 9.0 0.00 0.00 0.00 55 1012.7
20201020140447 68 64 5.0 8.0 0.00 0.00 0.00 54 1012.6
20201020135948 68 74 5.0 8.0 0.00 0.00 0.00 54 1012.7
20201020135446 68 65 5.0 7.0 0.00 0.00 0.00 55 1012.8
20201020134948 68 61 6.0 7.0 0.00 0.00 0.00 53 1012.7
20201020134448 68 79 6.0 8.0 0.00 0.00 0.00 50 1012.7
20201020133950 69 88 6.0 8.0 0.00 0.00 0.00 55 1012.8
20201020133446 69 68 6.0 8.0 0.00 0.00 0.00 54 1012.7
20201020132945 69 74 6.0 8.0 0.00 0.00 0.00 53 1012.6
20201020132445 69 86 6.0 8.0 0.00 0.00 0.00 52 1012.7
20201020131946 69 79 6.0 8.0 0.00 0.00 0.00 52 1012.6
20201020131444 69 74 8.0 9.0 0.00 0.00 0.00 54 1012.5
20201020130944 69 69 7.0 9.0 0.00 0.00 0.00 57 1012.5